Regional Weather Roundup
Issued by NWS

Home | Current Version | Previous Version | Graphics & Text | Print | Product List | Glossary On
Versions: 1 2 3 4 5 6 7 8 9 10 11 12 13 14 15 16 17 18 19 20 21 22 23 24 25 26 27 28 29 30 31 32 33 34 35 36 37 38 39 40 41 42 43 44 45 46 47 48 49 50
740
ASUS45 KTFX 140810
RWRMT
MONTANA REGIONAL WEATHER ROUNDUP
NATIONAL WEATHER SERVICE GREAT FALLS MT
100 AM MST SUN FEB 14 2016

NOTE: "FAIR" INDICATES FEW OR NO CLOUDS BELOW 12000 FEET WITH NO
SIGNIFICANT WEATHER AND/OR OBSTRUCTIONS TO VISIBILITY.

MTZ001>007-043-140900-
WEST OF THE DIVIDE

CITY           SKY/WX    TMP DP  RH WIND       PRES   REMARKS
KALISPELL      LGT SNOW  33  32  96 S8        29.99F FOG     WCI  26
MISSOULA       CLOUDY    36  28  73 W6        30.04F WCI  31
BUTTE          CLOUDY    32  21  64 CALM      29.99F
MULLAN PASS    LGT SNOW  25  24  96 VRB6      29.94F FOG     WCI  18
ANACONDA         N/A     36  23  60 S13       29.98S WCI  27
DEER LODGE       N/A     32  27  80 NW6       30.01S WCI  26
HAMILTON         N/A     39  27  60 SE15      30.03F WCI  31
PLAINS           N/A     37  32  82 W1        30.03F
$$

MTZ008-052>055-140900-
SOUTHWEST MONTANA

CITY           SKY/WX    TMP DP  RH WIND       PRES   REMARKS
BOZEMAN        CLOUDY    37  26  64 W10       29.99F WCI  30
DILLON         CLOUDY    34  22  61 SE8       30.01F WCI  27
ENNIS          CLOUDY    32  28  86 S18G24    30.07F HAZE    WCI  20
TWIN BRIDGES     N/A     37  21  52 SE9       29.99F WCI  30
$$

MTZ009-010-012-014-046-048-049-054-140900-
EAST SLOPES AND CENTRAL MONTANA

CITY           SKY/WX    TMP DP  RH WIND       PRES   REMARKS
CUT BANK       CLOUDY    35  22  58 SW17      29.80F WCI  25
GREAT FALLS    CLOUDY    39  21  48 SW18      29.88F WCI  30
MALMSTROM AFB  CLOUDY    40  22  48 SW18G26   29.89F
HELENA         CLOUDY    37  27  67 S5        29.98F
CHOTEAU          N/A     39  19  45 CALM      29.86F
CONRAD           N/A     34  26  72 S5        29.88F
$$

MTZ011-013-016-021-045-047-050-051-140900-
NORTH CENTRAL MONTANA

CITY           SKY/WX    TMP DP  RH WIND       PRES   REMARKS
HAVRE          PTCLDY    34  24  67 SW12      29.84F WCI  25
LEWISTOWN      CLOUDY    32  21  64 CALM      29.88F
N BAR RANCH      N/A     32  18  55 NW9G15    29.88F WCI  24
CHINOOK          N/A     28  23  80 CALM      29.85F
$$

MTZ017>020-022>027-061-062-140900-
NORTHEAST MONTANA

CITY           SKY/WX    TMP DP  RH WIND       PRES   REMARKS
GLASGOW        CLEAR     28  25  88 W6        29.82F WCI  22
JORDAN           N/A     33  28  81 W12       29.86F WCI  24
SIDNEY         CLOUDY    36  28  75 W6        29.82F WCI  31
WOLF POINT     CLEAR     29  25  85 W6        29.84F WCI  23
PLENTYWOOD       N/A     34  30  86 NW18G29   29.76F WCI  23
POPLAR           N/A     28  27  93 W9        29.83F WCI  20
SCOBEY           N/A     25  15  65 W7        29.78F WCI  17
$$

MTZ028>42-056>058-140900-
SOUTHCENTRAL AND SOUTHEAST MONTANA

CITY           SKY/WX    TMP DP  RH WIND       PRES   REMARKS
BAKER          CLEAR     32  27  81 W14       29.85F WCI  22
BILLINGS       CLOUDY    36  19  50 W9        29.91F WCI  29
LIVINGSTON     CLOUDY    38  24  57 SW37G45   29.94F WCI  25
MILES CITY     MOCLDY    34  27  75 NW3       29.90S
EKALAKA          N/A     30  25  82 SW12      29.85F WCI  20
FORSYTH          N/A     36  25  64 SW3       29.92S
LAUREL           N/A     31  17  56 W1        29.91F
ROUNDUP          N/A     35  17  48 CALM      29.83F
$$

REGIONAL REPORTS...DAKOTAS

CITY           SKY/WX    TMP DP  RH WIND       PRES   REMARKS
WILLISTON      CLOUDY    30  27  88 W6        29.79F WCI  24
MINOT          CLOUDY    20  14  77 S6        29.74F WCI  12
DICKINSON      CLOUDY    31  29  92 NW23G32   29.76S WCI  18
BEACH          CLOUDY    32  32 100 W15       29.84F WCI  22
CROSBY         CLOUDY    25  25 100 NW12      29.78F WCI  14
TIOGA          CLOUDY    25  25 100 NW16      29.79S WCI  12
BISMARCK       CLOUDY    20  17  88 S3        29.79F FOG
GRAND FORKS    LGT SNOW  13   7  77 S20G26    29.98F WCI  -5
FARGO          CLOUDY    14   5  67 S24       30.01F WCI  -5
BUFFALO SD       N/A     34  29  82 W20       29.77R WCI  23
RAPID CITY     CLEAR     39  27  62 NW20G30   29.87R WCI  29
$$

REGIONAL REPORTS...WYOMING/IDAHO/WASHINGTON

CITY           SKY/WX    TMP DP  RH WIND       PRES   REMARKS
GILLETTE       CLEAR     28  22  78 W10       29.94F WCI  19
SHERIDAN       CLOUDY    29  18  63 N3        29.95F
BUFFALO WY     CLOUDY    34  12  40 E5        29.95F
CODY           CLOUDY    39  16  38 W22G32    29.94F WCI  29
YELLOWSTONE LA   N/A     22  19  89 CALM      30.07F
IDAHO FALLS    CLOUDY    35  27  72 S13       30.14F WCI  26
SALMON         CLOUDY    32  27  80 SW7       30.10R WCI  26
BOISE          LGT RAIN  43  35  73 E6        30.18F
SPOKANE        CLOUDY    39  36  89 SW20G28   30.02F WCI  29
$$

REGIONAL REPORTS...ALBERTA

CITY           SKY/WX    TMP DP  RH WIND       PRES   REMARKS
EDMONTON       CLOUDY    32  23  69 SW6       29.64F WCI  26
CALGARY        MOCLDY    36  19  51 SW5       29.67F
LETHBRIDGE     CLOUDY    37  25  60 SW15      29.75F WCI  28
MEDICINE HAT   CLOUDY    36  28  75 S14G20    29.74F WCI  27
WATERTON GATE    N/A     37  19  48 SW24G44     N/A  WCI  26
MILK RIVER       N/A     34  25  69 SW8         N/A  WCI  27
ONEFOUR          N/A     36  25  64 SW6         N/A  WCI  31
$$

REGIONAL REPORTS...SASKATCHEWAN

CITY           SKY/WX    TMP DP  RH WIND       PRES   REMARKS
SWIFT CURRENT  MOCLDY    27  25  93 W10       29.73F WCI  17
REGINA         FLURRIES  23  21  93 W7        29.73F WCI  15
SASKATOON      PTCLDY    14  12  92 SW9       29.72F FOG     WCI   2
CYPRESS HILLS    N/A     27  25  93 W9          N/A  WCI  17
VAL MARIE        N/A     28  25  86 W8          N/A  WCI  20
ROCKGLEN         N/A     32  25  74 NW17G24     N/A  WCI  21
ASSINIBOIA       N/A     39  32  75 SW25G33     N/A  WCI  28
$$




USA.gov is the U.S. government's official web portal to all federal, state and local government web resources and services.